This demonstration page uses our WeatherBlox Daily Observations layout. Learn more.

Left ArrowRight Arrow

Hourly Observations for November 19, 2018

Temp ( °F °C ) Dew Point ( °F °C ) Humidity (%) Winds ( mph kmh ) Pressure ( in mb ) Visibility ( mi km ) Precip ( " mm )
12:57 am 00:57 Clear 27 -2.8 23 -5 85 85 WSW 3 6 30.06 1018 10 16 0.00 0.00
1:57 am 01:57 Clear 30 -1.1 24 -4.4 79 79 NW 10 17 30.06 1018 10 16 0.00 0.00
3:57 am 03:57 Mostly Clear 31 -0.6 24 -4.4 76 76 NW 10 17 30.08 1019 10 16 0.00 0.00
4:57 am 04:57 Cloudy 33 0.6 25 -3.9 72 72 NW 10 17 30.11 1020 10 16 0.00 0.00
5:57 am 05:57 Cloudy with Light Rain 33 0.6 30 -1.1 89 89 NNW 9 15 30.14 1021 9 14 0.00 0.03
6:57 am 06:57 Cloudy 32 0 30 -1.1 92 92 Calm 30.15 1021 10 16 0.00 0.03
7:57 am 07:57 Mostly Sunny 31 -0.6 29 -1.7 92 92 W 3 6 30.18 1022 10 16 0.00 0.00
8:57 am 08:57 Cloudy 36 2.2 32 0 86 86 WNW 8 13 30.19 1022 10 16 0.00 0.00
9:57 am 09:57 Mostly Sunny 38 3.3 32 0 79 79 NNW 14 22 30.20 1023 10 16 0.00 0.00
10:23 am 10:23 Mostly Cloudy 39 4 32 0 75 75 NNW 15 24 30.24 1024 10 16 0.00 0.00
10:57 am 10:57 Cloudy 40 4.4 32 0 73 73 NNW 16 26 30.22 1024 10 16 0.00 0.00
11:57 am 11:57 Cloudy 42 5.6 33 0.6 71 71 N 15 24 30.22 1023 10 16 0.00 0.00
12:57 pm 12:57 Cloudy 43 6.1 34 1.1 71 71 NNW 14 22 30.21 1023 10 16 0.00 0.00
1:57 pm 13:57 Mostly Cloudy 43 6.1 33 0.6 68 68 NNW 13 20 30.21 1023 10 16 0.00 0.00
2:07 pm 14:07 Mostly Cloudy 45 7 34 1 66 66 NNW 14 22 30.21 1023 10 16 0.00 0.00
2:57 pm 14:57 Cloudy 42 5.6 33 0.6 71 71 N 15 24 30.23 1024 10 16 0.00 0.00
3:57 pm 15:57 Cloudy 43 6.1 33 0.6 68 68 N 12 19 30.24 1024 10 16 0.00 0.00
4:57 pm 16:57 Cloudy 40 4.4 31 -0.6 70 70 NNW 6 9 30.25 1024 10 16 0.00 0.00
5:57 pm 17:57 Cloudy 38 3.3 31 -0.6 76 76 N 3 6 30.26 1025 10 16 0.00 0.00
6:57 pm 18:57 Cloudy 37 2.8 31 -0.6 79 79 Calm 30.28 1026 10 16 0.00 0.00
7:57 pm 19:57 Cloudy 36 2.2 30 -1.1 79 79 ENE 7 11 30.30 1026 10 16 0.00 0.00
8:57 pm 20:57 Cloudy 33 0.6 29 -1.7 85 85 ENE 7 11 30.31 1027 10 16 0.00 0.00
9:57 pm 21:57 Cloudy 32 0 28 -2.2 85 85 SSE 5 7 30.32 1027 10 16 0.00 0.00
10:57 pm 22:57 Clear 29 -1.7 26 -3.3 89 89 ESE 3 6 30.32 1027 10 16 0.00 0.00
11:57 pm 23:57 Clear 25 -3.9 23 -5 92 92 SE 5 7 30.33 1027 10 16 0.00 0.00

Powered by AerisWeather